WEATHER DATA

YESTERDAY
Time Temp. Dewp. Hum. Bar. 1h Prec. 24h Prec.
00:08 15.1 8.6 65 1020.3 0.0000 0.0000
00:18 15.1 8.6 65 1020.2 0.0000 0.0000
00:28 15.1 8.6 65 1020.1 0.0000 0.0000
00:38 15.1 8.6 65 1019.9 0.0000 0.0000
00:48 15.1 8.6 65 1019.8 0.0000 0.0000
00:58 15.2 8.7 65 1019.7 0.0000 0.0000
01:08 15.2 9.1 67 1019.8 0.0000 0.0000
01:19 15.2 9.3 68 1019.7 0.0000 0.0000
01:28 15.2 9.3 68 1019.4 0.0000 0.0000
01:38 15.1 9.5 69 1019.2 0.0000 0.0000
01:49 15.1 9.7 70 1019 0.0000 0.0000
01:59 15.1 9.7 70 1018.8 0.0000 0.0000
02:09 15.1 9.7 70 1018.7 0.0000 0.0000
02:18 15.1 9.7 70 1018.2 0.0000 0.0000
02:29 15.1 9.7 70 1018.2 0.0000 0.0000
02:39 15.2 9.8 70 1018.3 0.0000 0.0000
02:49 15.4 9.7 69 1018.2 0.0000 0.0000
02:59 15.6 9.7 68 1018 0.0000 0.0000
03:10 15.7 9.8 68 1018.1 0.0000 0.0000
03:19 15.9 9.8 67 1017.8 0.0000 0.0000
03:29 16 9.9 67 1017.7 0.0000 0.0000
03:40 16.2 10.1 67 1017.5 0.0000 0.0000
03:50 16.2 10.1 67 1017.4 0.0000 0.0000
04:00 16.3 10.2 67 1017.2 0.0000 0.0000
04:20 16.5 10.4 67 1017.2 0.0000 0.0000
04:30 16.6 10.5 67 1017.2 0.0000 0.0000
04:40 16.7 10.5 67 1017.1 0.0000 0.0000
04:51 16.8 10.6 67 1017 0.0000 0.0000
05:01 16.9 10.7 67 1016.9 0.0000 0.0000
05:10 17 10.8 67 1016.7 0.0000 0.0000
05:20 17.1 11.2 68 1016.5 0.0000 0.0000
05:31 17.2 11.2 68 1016.6 0.0000 0.0000
05:41 17.3 11.6 69 1016.5 0.0000 0.0000
05:51 17.4 11.7 69 1016.4 0.0000 0.0000
06:01 17.5 11.8 69 1016.4 0.0000 0.0000
06:11 17.6 11.9 69 1016.3 0.0000 0.0000
06:21 17.6 11.9 69 1016.3 0.0000 0.0000
06:31 17.7 11.9 69 1016.3 0.0000 0.0000
06:42 17.8 12 69 1016.2 0.0000 0.0000
06:51 17.8 12 69 1016 0.0000 0.0000
07:01 17.9 12.1 69 1016.2 0.0000 0.0000
07:12 17.9 12.4 70 1016 0.0000 0.0000
07:22 18 12.5 70 1016.3 0.0000 0.0000
07:32 18 12.5 70 1016.3 0.0000 0.0000
07:52 18 12.7 71 1015.9 0.0000 0.0000
08:12 17.9 13 73 1016 0.0000 0.0000
08:22 17.9 13 73 1016.2 0.0000 0.0000
08:32 18 13.1 73 1016 0.0000 0.0000
08:42 18 13.1 73 1016 0.0000 0.0000
08:52 18.1 13.2 73 1015.7 0.0000 0.0000
09:03 18.3 13.2 72 1015.8 0.0000 0.0000
09:13 18.5 13.4 72 1015.9 0.0000 0.0000
09:22 18.6 13.7 73 1016.2 0.0000 0.0000
09:32 18.5 13.6 73 1016 0.0000 0.0000
09:53 18.4 13.9 75 1016.3 0.0000 0.0000
10:03 18.4 14.1 76 1016.2 0.0000 0.0000
10:13 18.4 14.1 76 1016 0.0000 0.0000
10:23 18.5 14.2 76 1016 0.0000 0.0000
10:33 18.7 14.2 75 1015.9 0.0000 0.0000
10:43 18.9 14.4 75 1016 0.0000 0.0000
11:04 19.2 14.5 74 1015.9 0.0000 0.0000
11:24 19.4 14.9 75 1015.9 0.0000 0.0000
11:34 19.5 15 75 1015.8 0.0000 0.0000
11:44 19.6 14.8 74 1015.7 0.0000 0.0000
11:54 19.8 15 74 1015.8 0.0000 0.0000
12:05 19.9 15.1 74 1015.6 0.0000 0.0000
12:14 19.9 15.3 75 1015.4 0.0000 0.0000
12:24 19.9 15.3 75 1015.3 0.0000 0.0000
12:34 20 15.4 75 1015.3 0.0000 0.0000
12:45 20 15.6 76 1014.9 0.0000 0.0000
12:55 20.1 15.7 76 1014.9 0.0000 0.0000
13:05 20.1 15.5 75 1014.8 0.0000 0.0000
13:15 20.1 15.5 75 1015 0.0000 0.0000
13:25 20.2 15.8 76 1014.8 0.0000 0.0000
13:35 20.4 16 76 1014.3 0.0000 0.0000
13:45 20.6 16.2 76 1014.3 0.0000 0.0000
13:56 20.7 16.5 77 1014 0.0000 0.0000
14:05 20.5 16.3 77 1013.9 0.0000 0.0000
14:15 20.4 16.2 77 1013.7 0.0000 0.0000
14:26 20.3 16.3 78 1013.7 0.0000 0.0000
14:36 20.3 16.3 78 1013.1 0.0000 0.0000
14:46 20.7 16.5 77 1012.9 0.0000 0.0000
14:56 20.9 16.7 77 1012.5 0.0000 0.0000
15:06 21 16.6 76 1012.7 0.0000 0.0000
15:16 21.1 16.7 76 1012.4 0.0000 0.0000
15:26 21.2 16.8 76 1012.1 0.0000 0.0000
15:36 21.3 16.7 75 1012.2 0.0000 0.0000
15:47 21.3 16.7 75 1011.9 0.0000 0.0000
15:56 21.3 16.7 75 1011.6 0.0000 0.0000
16:06 21.3 16.7 75 1011.5 0.0000 0.0000
16:17 21.4 16.8 75 1011.3 0.0000 0.0000
16:27 21.5 16.9 75 1010.8 0.0000 0.0000
16:37 21.5 16.9 75 1010.9 0.0000 0.0000
16:47 21.6 17 75 1010.8 0.0000 0.0000
16:57 21.6 17 75 1010.6 0.0000 0.0000
17:07 21.7 16.9 74 1010.2 0.0000 0.0000
17:17 21.7 16.9 74 1009.7 0.0000 0.0000
17:28 21.9 17.1 74 1009.5 0.0000 0.0000
17:37 21.9 16.8 73 1008.9 0.0000 0.0000
17:47 21.9 16.8 73 1009.4 0.0000 0.0000
17:57 21.9 17.1 74 1011.1 0.0000 0.0000
18:08 20.7 17.1 80 1011.6 1.6160 1.6000
18:18 19.3 16.3 83 1011.8 3.3330 3.3000
18:27 18.2 15.8 86 1012.1 4.4440 4.4000
18:38 17.3 15.1 87 1012.5 5.7570 5.8000
18:48 16.6 14.4 87 1012.7 6.8680 6.9000
18:58 16.1 14.1 88 1013.2 7.3730 8.1000
19:08 15.8 14 89 1013.6 6.6660 9.1000
19:19 15.5 13.9 90 1013.9 5.9590 9.9000
19:28 15.4 13.8 90 1014.5 5.4540 10.7000
19:38 15.2 13.6 90 1015.6 5.1510 11.5000
19:48 15 13.4 90 1016.6 4.7470 12.2000
19:59 14.7 12.7 88 1016.7 3.3330 12.8000
20:19 13.9 11.9 88 1018.2 3.0300 13.3000
20:29 13.6 11.7 88 1018.4 2.6260 13.7000
20:39 13.4 11.6 89 1019.1 2.2220 14.1000
20:49 13.2 11.3 88 1019.2 2.0200 14.5000
20:59 13 11.1 88 1019.8 2.0200 14.8000
21:10 12.9 11.1 89 1020 2.0200 15.2000
21:20 12.7 10.8 88 1020.2 1.7170 15.4000
21:29 12.6 10.8 89 1020.6 1.7170 15.7000
21:40 12.5 10.7 89 1020.8 1.7170 15.9000
21:50 12.5 10.7 89 1021.4 1.4140 16.0000
22:00 12.4 10.6 89 1021.7 1.1110 16.0000
22:10 12.4 10.6 89 1021.9 0.8080 16.0000
22:20 12.3 10.5 89 1022.1 0.6060 16.0000
22:30 12.3 10.5 89 1022.2 0.3030 16.0000
22:40 12.2 10.4 89 1022.3 0.1010 16.0000
22:50 12.2 10.3 88 1022.8 0.0000 16.0000
23:01 12.1 10.2 88 1023.3 0.0000 16.0000
23:11 12 9.9 87 1023.6 0.0000 16.0000
23:20 11.9 9.8 87 1023.9 0.0000 16.0000
23:31 11.7 9.6 87 1024.1 0.0000 16.0000
23:41 11.6 9.5 87 1024.5 0.0000 16.0000
23:51 11.5 9.4 87 1024.6 0.0000 16.0000

DAY STATISTIC

2018-09-23
TEMPERATURE
AVERAGE
17.3
HIGH
21.9
17:28
LOW
11.5
23:51
PRESSURE
AVERAGE
1016.4
HIGH
1024.6
23:51
LOW
1008.9
17:37
DEWPOINT
AVERAGE
12.9
HIGH
17.1
17:28
LOW
8.6
00:08
HUMIDITY
AVERAGE
76
HIGH
90
19:19
LOW
65
00:08
PRECIPITATION
RAIN HOUR
7.4
RAIN DAY
16.0
TEMPERATURE (°C)
LOW
11.5
HIGH
21.9
AVERAGE
17.3
PRESSURE (hpa)
LOW
1008.9
HIGH
1024.6
AVERAGE
1016.4
DEVICE